Regional Weather Roundup
Issued by NWS

Home | Current Version | Previous Version | Graphics & Text | Print | Product List | Glossary On
Versions: 1 2 3 4 5 6 7 8 9 10 11 12 13 14 15 16 17 18 19 20 21 22 23 24 25 26 27 28 29 30 31 32 33 34 35 36 37 38 39 40 41 42 43 44 45 46 47 48 49 50
000
ASUS44 KMEG 011300
RWRTN
TENNESSEE HOURLY STATE WEATHER ROUNDUP
NATIONAL WEATHER SERVICE MEMPHIS TN
800 AM CDT TUE SEP 01 2015

TNZ002-004-019-021-049-052-054-088>092-011400-
WEST TENNESSEE

CITY           SKY/WX    TMP DP  RH WIND       PRES   REMARKS
MEMPHIS INTL   MOSUNNY   77  69  76 SE5       30.11R
NWS MEMPHIS      N/A     74 N/A N/A MISG        N/A
JACKSON        MOSUNNY   71  68  90 CALM      30.13S
DYERSBURG      SUNNY     70  68  94 CALM      30.13S
PARIS          SUNNY     70  66  88 CALM      30.14S
$$

TNZ008-025-027-028-033-062-065-066-011400-
NORTH MIDDLE TENNESSEE

CITY           SKY/WX    TMP DP  RH WIND       PRES   REMARKS
NASHVILLE      PTSUNNY   74  67  78 CALM      30.16R
CLARKSVILLE    SUNNY     69  67  93 CALM      30.15R
COOKEVILLE     SUNNY     70  66  88 CALM      30.17R
CROSSVILLE     SUNNY     71  65  81 CALM      30.21R
$$

TNZ061-075-076-078-094-096-097-011400-
SOUTH MIDDLE TENNESSEE

CITY           SKY/WX    TMP DP  RH WIND       PRES   REMARKS
SHELBYVILLE    SUNNY     72  70  94 CALM      30.17S
$$

TNZ017-018-042-046-047-011400-
NORTHEAST TENNESSEE

CITY           SKY/WX    TMP DP  RH WIND       PRES   REMARKS
TRI CITIES     MOSUNNY   69  65  86 CALM      30.20R
$$

TNZ012-013-036-069-073-074-011400-
CENTRAL EAST TENNESSEE

CITY           SKY/WX    TMP DP  RH WIND       PRES   REMARKS
KNOXVILLE      MOSUNNY   71  69  93 CALM      30.16
OAK RIDGE      MOSUNNY   69  66  90 CALM      30.18S
GATLINBURG     SUNNY     70  63  78 CALM      30.17S
$$

TNZ083-085-099-011400-
SOUTHEAST TENNESSEE

CITY           SKY/WX    TMP DP  RH WIND       PRES   REMARKS
CHATTANOOGA    MOSUNNY   71  67  87 CALM      30.16R
$$

SKY/WX REPORTED AS FAIR MEANS FEW OR NO CLOUDS BELOW
12 THOUSAND FEET.



USA.gov is the U.S. government's official web portal to all federal, state and local government web resources and services.